Location: Kampung Segan
(3.1399°N, 113.1002°E)
Time: 13:59:51
(UTC+00:00)

SJ-6B - Pass Details

Date: 05 August 2024
Orbit: 484 x 543 km, 97.4° (Epoch: 09 September)

Event Time Altitude Azimuth Distance (km) Brightness Sun altitude
Exits shadow 12:03:26 61° 111° (ESE) 619 2.7 -20.5°
Maximum altitude 12:03:47 65° 79° (ENE) 600 2.7 -20.5°
Drops below altitude 10° 12:07:40 10° 357° (N) 1,811 5.7 -21.5°
Sets 12:09:48 0° 354° (N) 2,704 6.7 -22.0°
